Вернуться в каталог

STARLINK-34733

АктивенСвязьVLEO
NORAD 66487·PAYLOAD·🇺🇸 United States

Запущен Nov 15, 2025 с Cape Canaveral Space Force Station

Loading…

Ближайшие Пролёты (ближайшие 24 часа)

TLE

СвежийSource: CelesTrak SupGP

Эпоха: Sep 14, 2026, 21:31 UTC

1 66487C 25263C   26257.89701389  .00000924  00000+0  33451-4 0  2577
2 66487  43.0028   1.8253 0001732 271.0365 302.2916 15.27579048    18

Отслеживайте STARLINK-34733 в реальном времени с AllMySat

Download on the App Store